Regional Weather Roundup
Issued by NWS Jackson, KY

Home | Current Version | Previous Version | Text Only | Print | Product List | Glossary Off
Versions: 1 2 3 4 5 6 7 8 9 10 11 12 13 14 15 16 17 18 19 20 21 22 23 24 25 26 27 28

000
ASUS43 KJKL 210710
RWRJKL

EAST KENTUCKY HOURLY WEATHER ROUNDUP
NATIONAL WEATHER SERVICE JACKSON KY
300 AM EDT MON MAY 21 2018

NOTE: "FAIR" INDICATES FEW OR NO CLOUDS BELOW 12,000 FEET WITH
NO SIGNIFICANT WEATHER AND/OR OBSTRUCTIONS TO VISIBILITY.

* THESE REPORTS ARE NOT UNDER NWS QUALITY CONTROL AND MAY NOT
  REPORT WEATHER SUCH AS PRECIPITATION AND FOG.

KYZ079-080-083-085-087-088-110-112-115-119-120-210800
...EASTERN KENTUCKY...

CITY           SKY/WX    TMP DP  RH WIND       PRES   REMARKS
JACKSON          N/A     70  65  84 CALM      30.11F
LONDON           N/A     65  65 100 CALM      30.12F FOG
SOMERSET*        N/A     64  64 100 MISG      30.12F
MONTICELLO*      N/A     64  63  96 N8        30.13F
WILLIAMSBURG*    N/A     64  64 100 CALM      30.12F
MIDDLESBORO*     N/A     64  64 100 CALM      30.13F
HARLAN APT*    CLOUDY    64  64  99 CALM      30.14F
PIKE CO APT*     N/A     69  69 100 S3        30.12F
BIG SANDY APT*   N/A     70  69  98 CALM      30.11F
ASHLAND*         N/A     66  66 100 CALM      30.09S FOG
$$

KYZ035-036-041-042-044-050-067-078-099-210800
...CENTRAL KENTUCKY...

CITY           SKY/WX    TMP DP  RH WIND       PRES   REMARKS
MT STERLING*     N/A     70  66  88 SW3       30.11F
FLEMING/MASON*   N/A     65  65  98 E3        30.11F
DANVILLE*        N/A     64  61  88 CALM      30.11F
LEXINGTON        N/A     69  64  84 SW5       30.10F
FRANKFORT        N/A     71  64  78 CALM      30.08S
LOUISVILLE       N/A     73  64  73 CALM      30.06F
LEBANON*         N/A     66  61  82 CALM      30.10S
GLASGOW*         N/A     65  63  94 CALM      30.09F
BOWLING GREEN    N/A     68  67  96 SE7       30.07F
$$

KYZ091>093-OHZ055-061-077-WVZ005-015-034-035-042-210800
...SOUTHERN OHIO/WEST VIRGINIA...

CITY           SKY/WX    TMP DP  RH WIND       PRES   REMARKS
COVINGTON      MOCLDY    69  64  84 E3        30.08F
COLUMBUS       CLOUDY    63  57  81 NE6       30.14S
DAYTON         MOCLDY    63  61  93 NE7       30.13F
WILMINGTON       N/A     64  63  96 NE8       30.11F
HUNTINGTON       N/A     68  65  90 CALM      30.08F
CHARLESTON       N/A     66  66 100 CALM      30.10S
PINEVILLE*       N/A     63  62  96 MISG      30.20S FOG
BECKLEY          N/A     61  60  97 CALM      30.18S
BLUEFIELD        N/A     64  61  90 W5        30.19F
LOGAN CO APT*    N/A     68  66  94 CALM      30.13S
$$

VAZ002-007-008-TNZ017-027-036-066-071-210800
...SOUTHWEST VIRGINIA/EAST TENNESSEE...

CITY           SKY/WX    TMP DP  RH WIND       PRES   REMARKS
WISE*            N/A     64  64 100 CALM      30.20F
JONESVILLE*      N/A     64  64 100 CALM      30.15F
ABINGDON*        N/A     66  66 100 SE3       30.17F FOG
BRISTOL          N/A     65  65 100 CALM      30.14F
MORRISTOWN*    SUNNY     68  66  94 CALM      30.12F
SEVIERVILLE*   SUNNY     66  66 100 CALM      30.12F
KNOXVILLE      MOCLDY    71  65  81 W8        30.11F
LAFOLLETTE*    SUNNY     64  64 100 CALM      30.15F
OAK RIDGE        N/A     71  70  96 S3        30.13F
CROSSVILLE       N/A     66  62  87 S3        30.16F
NASHVILLE      MOCLDY    68  66  93 S5        30.10F
$$

...KEY TO REMARKS...
VSB - VISIBILITY IN MILES
WCI - WIND CHILL INDEX
HX  - HEAT INDEX

$$




USA.gov is the U.S. government's official web portal to all federal, state and local government web resources and services.